GFSFLT2_925_rhum_000.txt.gz
RH
55 57 62 66 67 70 73 79 72 56 53 53 52 55 60 55 50 49 50 52 52 57 53 54 50 53 52
73 77 76 73 76 84 78 67 62 58 54 55 52 49 48 49 51 52 71 83 66 59 58 62 67 67 66
69 65 68 84 82 66 59 55 56 54 56 57 56 56 63 67 89 71 55 55 55 56 54 55 54 53 56
86 81 96 77 65 60 59 62 64 68 74 72 66 65 64 58 57 59 62 62 60 60 56 61 70 75 69
76 82 84 64 65 66 69 68 75 92 68 66 69 70 69 68 67 66 68 68 66 82 72 66 68 77 79
95 82 72 69 72 75 81 95 78 65 67 75 72 73 75 75 71 65 62 59 71 59 68 72 71 85 69
76 75 76 83 98 89 83 85 87 81 84 84 76 77 73 70 67 67 65 65 68 80 82 78 74 74 68
66 86 91 72 66 76 97 96 93 81 74 88 74 75 74 75 75 74 72 71 77 86 94 99 99 97 97
80 67 64 67 75 94 93 92 85 74 72 78 80 84 83 81 78 77 76 68 71 83 90 90 88 90 88
70 70 74 76 77 87 98 94 91 89 68 85 87 88 90 73 73 73 78 77 80 85 88 93 97 99 100
77 79 80 81 82 91 98 98 94 92 83 94 93 91 91 88 75 72 72 81 79 87 99 99 99 99 99
85 79 82 92 94 96 98 98 99 98 96 100 96 97 94 91 84 70 74 81 89 98 99 99 99 99 99
86 88 92 96 98 98 97 96 97 96 96 98 99 97 97 93 91 86 88 82 92 98 99 99 100 100 100
93 92 89 88 92 97 97 94 96 88 86 94 97 99 96 96 98 92 93 95 90 99 100 99 100 100 100
95 94 90 88 92 93 97 96 94 94 91 90 90 95 88 91 95 95 94 95 99 99 99 99 100 100 100
96 95 95 95 94 94 95 96 94 93 94 95 97 94 83 83 98 96 97 98 99 100 100 98 97 99 100
97 97 96 96 92 93 92 94 91 95 95 97 97 96 95 94 90 99 98 98 99 98 100 99 98 99 100

GFSFLT2_925_rhum_003.txt.gz
RH
71 72 75 73 70 70 76 94 79 63 54 51 49 51 52 57 66 67 65 68 56 54 52 61 59 65 68
75 64 63 66 72 79 88 70 62 56 52 52 54 55 60 67 63 68 61 71 81 95 88 71 74 65 67
71 70 77 82 75 90 64 60 60 58 56 62 63 65 62 59 62 64 79 67 65 68 68 63 59 55 56
87 89 73 87 85 66 60 62 67 69 73 81 64 59 60 60 59 58 59 59 59 59 59 60 59 59 55
76 90 80 65 65 67 72 75 86 82 71 65 67 68 71 68 65 63 64 65 72 75 75 71 73 78 79
96 76 68 70 71 83 93 84 83 69 70 79 74 77 77 76 73 70 65 66 70 70 70 71 73 89 72
70 71 74 84 98 93 91 94 86 80 87 85 76 78 75 74 71 72 71 68 69 76 83 77 77 73 69
68 84 89 73 70 78 93 97 94 80 72 89 76 77 76 78 78 77 76 74 72 74 72 74 87 96 94
80 72 67 69 76 93 94 92 84 72 72 78 80 81 81 81 81 77 74 68 64 67 69 71 78 77 82
72 73 78 81 78 83 97 94 92 88 68 86 87 88 89 71 69 71 76 75 74 74 75 86 88 98 99
83 84 81 77 82 92 98 98 94 92 84 93 93 90 90 87 74 70 72 74 77 82 88 94 98 99 99
88 81 84 91 93 96 99 98 98 98 96 99 96 96 93 90 86 71 76 82 86 92 96 98 99 99 100
87 90 92 94 94 95 96 96 96 94 95 97 100 98 98 93 92 87 90 83 88 97 98 98 99 99 99
92 93 91 89 90 92 96 95 97 87 83 89 97 99 96 94 96 92 94 96 92 97 99 100 100 100 99
95 95 92 90 92 91 97 96 93 91 90 91 91 94 94 98 95 94 95 95 99 99 100 98 100 100 100
98 97 96 96 95 93 93 94 94 92 94 94 98 94 81 74 96 97 96 98 99 100 100 98 97 98 100
100 98 96 97 93 94 93 93 90 92 95 98 98 95 93 94 88 98 98 98 99 98 100 99 98 99 100

GFSFLT2_925_rhum_006.txt.gz
RH
71 74 72 64 65 69 72 75 81 93 67 53 52 54 55 55 58 62 73 68 70 70 69 65 66 73 66
84 72 67 70 75 85 80 84 86 64 58 56 56 56 58 67 75 73 75 67 72 66 71 79 78 79 72
74 72 74 86 80 86 81 71 62 61 60 60 62 64 70 70 64 68 71 76 83 70 79 74 71 69 73
75 82 91 91 73 64 63 66 70 73 76 74 67 65 64 63 63 62 63 63 61 60 65 66 65 66 61
94 89 75 64 66 68 73 76 80 73 69 70 70 72 74 73 71 69 71 70 71 80 76 81 82 72 63
80 70 67 69 71 83 94 84 85 72 75 87 80 78 76 74 73 72 71 70 70 70 75 76 78 78 73
69 71 73 84 98 94 91 92 86 82 88 90 78 77 73 72 70 73 73 73 77 83 84 77 73 73 74
72 88 95 78 75 80 94 98 91 78 72 90 77 77 74 75 75 75 75 75 80 86 80 80 84 89 86
89 76 73 76 81 91 94 93 83 73 73 76 75 78 79 78 76 73 68 65 66 70 71 74 75 71 69
74 74 81 84 80 81 91 95 91 89 67 86 87 88 88 69 65 71 76 76 74 75 78 78 78 81 96
83 84 84 81 86 94 98 99 95 92 83 94 94 90 92 90 74 72 72 75 81 88 91 94 97 98 99
87 84 86 94 95 97 98 98 100 98 96 99 96 96 93 89 84 72 74 84 92 99 98 99 99 99 99
89 90 93 95 96 96 95 95 95 95 94 91 98 98 98 94 92 88 92 85 88 94 98 98 98 100 98
94 94 94 91 92 94 98 96 97 88 83 85 95 98 96 95 97 93 95 96 95 98 100 100 99 100 100
97 97 94 92 93 93 97 96 94 89 88 88 91 96 94 97 95 92 95 96 99 100 100 98 96 100 100
100 98 97 97 95 95 95 96 94 91 93 92 97 93 79 72 93 98 93 96 98 99 99 98 94 98 100
100 99 97 97 95 95 95 95 92 91 91 92 98 95 92 92 71 81 98 98 98 96 98 98 98 98 100

GFSFLT2_925_rhum_009.txt.gz
RH
63 65 64 62 58 62 68 72 74 68 63 61 62 58 60 66 67 66 63 69 68 73 78 76 77 81 77
70 67 60 62 66 76 78 68 62 62 62 60 60 60 62 67 76 79 78 83 80 70 77 72 71 68 69
69 64 69 78 83 67 60 54 55 59 62 64 65 68 68 70 71 71 71 76 70 69 78 78 76 77 78
80 87 71 66 63 58 58 62 64 68 71 69 67 65 65 65 66 67 67 68 66 67 69 72 74 68 64
82 73 67 58 60 64 69 75 74 71 69 68 65 68 72 71 70 69 70 72 72 72 79 78 80 78 69
78 63 58 62 67 80 84 81 80 66 67 77 74 73 70 68 68 70 71 70 71 70 75 80 75 71 76
64 63 68 78 98 92 85 82 80 77 79 80 72 71 68 67 68 71 72 74 76 84 86 81 76 75 76
70 81 94 81 79 82 90 94 86 74 67 80 70 69 68 69 70 73 74 76 76 76 79 76 80 84 85
88 81 74 77 82 89 90 91 80 70 70 72 69 72 74 74 72 69 72 74 78 79 77 75 73 73 71
71 70 74 76 82 80 90 94 90 87 62 83 83 79 79 58 59 71 72 74 79 80 86 87 86 88 96
74 75 76 74 77 88 95 98 95 91 81 93 91 88 88 87 74 70 76 86 93 93 91 96 98 99 98
78 77 80 91 94 96 99 100 100 98 95 99 96 96 93 87 80 71 75 87 90 94 95 97 98 99 99
82 89 90 94 99 98 96 97 98 96 95 93 98 98 97 93 91 86 88 85 91 96 99 99 99 100 99
89 90 88 90 92 93 96 95 96 88 84 88 97 99 96 94 96 92 89 95 93 98 100 100 100 100 100
94 94 91 89 92 92 95 95 93 89 88 86 91 95 96 93 95 86 83 90 93 99 99 97 91 100 100
98 98 96 96 94 94 94 94 93 90 91 91 93 93 82 69 68 88 92 89 93 97 99 97 89 88 100
100 99 98 96 94 94 93 93 91 90 91 91 95 94 89 89 70 69 97 95 96 88 95 98 97 97 100

GFSFLT2_925_rhum_012.txt.gz
RH
43 46 49 50 49 51 53 57 60 54 53 55 58 61 65 70 71 72 68 72 67 69 69 71 72 75 85
54 52 51 54 57 57 54 48 47 46 50 57 62 64 65 67 70 73 75 77 78 78 74 76 74 75 80
54 55 60 67 61 55 49 46 48 51 53 56 60 64 67 68 67 67 69 71 78 75 71 73 68 69 64
64 77 68 60 54 46 47 52 57 60 60 61 62 62 63 61 63 66 68 69 72 72 73 75 77 77 71
94 72 64 50 45 50 58 66 66 63 62 61 55 59 65 65 63 63 64 66 69 76 79 81 76 73 75
80 63 50 47 54 63 79 77 76 62 59 68 66 66 64 63 61 62 65 68 71 74 80 86 79 76 76
65 52 54 60 81 94 80 78 74 71 73 73 64 61 61 61 61 65 69 74 79 80 84 83 83 84 82
57 62 76 90 84 76 84 84 83 71 63 72 63 62 61 64 65 68 72 75 78 84 83 81 82 77 77
72 82 74 70 73 81 89 88 80 69 66 64 61 68 70 68 61 55 61 77 89 97 98 95 90 85 83
65 61 61 63 68 70 81 94 88 86 61 76 81 76 75 57 55 67 68 69 71 84 95 98 97 99 100
62 62 62 62 67 79 89 97 95 91 80 90 90 87 87 85 71 70 69 70 72 81 87 90 94 99 100
66 66 70 83 87 91 96 99 99 99 96 100 96 95 92 87 79 71 69 77 81 91 99 99 97 94 95
76 81 83 84 88 92 91 92 94 94 94 95 98 98 97 93 89 86 83 83 85 96 99 100 99 99 99
80 81 81 80 83 87 91 90 92 88 85 88 92 99 96 93 92 88 89 93 85 88 98 98 99 100 100
88 89 86 84 88 88 91 93 91 87 86 85 87 93 96 97 96 88 80 76 82 93 99 96 90 97 100
94 94 94 94 92 91 90 91 90 86 87 86 91 89 81 75 72 81 77 81 88 93 98 97 88 84 100
96 96 96 95 92 92 91 91 88 88 88 89 93 93 93 88 69 70 83 90 94 91 88 97 97 95 100

GFSFLT2_925_rhum_015.txt.gz
RH
46 47 49 49 48 52 59 56 55 50 48 50 54 58 62 65 70 72 70 70 69 74 71 80 75 73 69
53 53 52 50 55 67 62 53 52 45 48 53 57 60 62 63 66 70 71 72 73 80 78 81 84 75 78
55 54 57 63 78 61 54 50 46 49 52 56 58 61 64 64 63 62 63 65 69 73 80 77 72 74 79
65 72 73 86 60 53 48 50 56 59 64 60 61 60 61 58 61 65 67 67 67 68 71 81 76 74 76
81 84 74 60 56 51 56 64 67 76 65 65 60 62 66 65 63 63 64 65 68 70 80 77 82 80 79
96 73 68 58 54 66 75 86 87 65 66 69 68 71 68 65 61 61 64 66 69 76 79 83 84 79 78
66 59 58 61 71 82 89 83 78 75 75 81 76 70 65 62 62 63 68 72 74 76 79 82 84 83 85
56 60 66 83 98 97 81 82 81 77 73 82 71 69 66 66 68 70 72 71 68 69 76 89 98 98 92
62 72 72 66 65 68 81 86 84 74 73 75 73 75 75 75 69 59 60 62 73 74 77 78 82 97 100
79 68 61 60 62 63 72 96 92 88 70 80 91 87 86 64 61 70 71 72 72 75 75 75 84 100 100
68 62 63 64 67 77 84 95 96 92 84 91 94 92 93 88 77 74 73 72 74 76 83 84 86 96 100
67 69 73 81 86 88 89 94 98 99 94 98 96 97 94 90 84 72 73 77 83 88 90 92 91 92 96
79 82 83 83 86 90 89 89 89 91 92 94 100 98 98 94 91 88 81 81 87 92 88 99 100 100 99
88 87 87 87 87 88 94 92 95 89 86 87 90 96 97 96 95 92 84 86 89 91 86 92 96 96 98
95 95 92 90 92 91 93 96 95 87 86 85 86 87 92 100 96 88 86 87 82 81 86 93 90 87 96
97 97 96 96 94 95 93 94 94 90 91 89 91 94 84 78 74 80 76 78 81 86 91 97 90 81 86
99 98 98 97 93 94 94 94 91 88 87 88 94 95 93 89 69 73 92 94 95 94 87 93 97 89 93

GFSFLT2_925_rhum_018.txt.gz
RH
49 53 54 54 54 53 55 65 67 59 53 55 52 57 59 64 70 67 69 74 79 78 78 81 85 77 74
61 60 60 58 60 68 78 71 58 54 52 52 57 60 63 64 66 71 75 76 75 80 82 73 73 77 77
69 67 67 73 77 78 67 56 52 52 54 57 59 67 66 65 64 64 66 68 67 68 73 75 74 78 76
75 84 84 81 81 68 64 57 60 66 66 73 71 66 67 64 67 70 71 70 68 67 68 70 76 74 75
82 78 94 72 72 67 64 64 68 75 80 71 69 70 72 72 73 73 72 70 69 70 71 72 75 74 78
97 84 70 71 64 67 71 79 85 77 72 78 74 75 77 80 74 70 70 70 69 72 76 76 77 81 81
76 71 64 64 68 83 90 97 92 81 81 83 77 79 75 73 72 74 72 76 78 77 77 78 79 82 86
65 64 66 74 92 96 86 81 82 81 79 90 78 77 77 78 76 77 78 77 70 68 70 75 80 79 80
68 75 77 72 68 68 78 82 82 77 79 83 82 87 84 82 74 67 69 66 75 77 79 79 79 79 79
85 68 70 66 68 69 74 95 92 87 72 92 91 93 84 66 63 73 75 78 78 78 78 79 81 86 92
71 72 71 72 75 79 84 93 96 93 84 92 94 93 94 88 79 76 76 75 77 80 84 88 90 90 96
72 76 82 87 88 88 88 91 91 100 96 100 97 98 94 90 84 73 75 79 84 86 89 92 90 92 88
92 93 89 89 92 97 91 95 96 96 94 93 99 98 98 94 92 89 81 83 86 89 87 92 92 96 95
91 93 95 96 94 96 98 98 98 92 85 86 88 93 97 96 96 92 87 92 87 88 89 93 86 86 89
98 97 96 95 95 94 97 98 96 91 90 88 88 90 95 98 97 90 88 88 89 88 90 90 87 90 90
99 99 98 98 97 97 96 97 96 92 92 90 92 94 87 80 79 89 94 92 91 90 89 92 91 83 84
100 100 99 98 94 97 96 95 93 91 90 92 97 96 94 89 69 71 90 96 96 95 91 89 93 91 91

GFSFLT2_925_rhum_021.txt.gz
RH
58 62 65 62 62 59 60 68 74 69 62 61 60 59 62 63 65 64 67 69 76 77 83 79 78 79 79
71 72 71 67 70 75 77 81 74 64 61 58 60 64 64 68 70 67 67 70 79 81 75 70 73 78 81
77 75 76 78 83 90 87 73 69 63 59 61 65 72 76 71 70 70 70 71 71 70 73 76 77 76 76
79 84 81 82 89 77 75 70 66 65 66 73 77 75 71 70 74 76 77 78 76 74 75 80 83 81 77
89 87 89 78 73 72 71 69 71 77 77 78 77 75 76 77 76 79 83 79 75 75 78 81 85 86 88
95 84 81 76 71 70 75 81 86 78 82 84 80 80 80 79 81 77 76 78 80 81 81 80 82 80 80
84 83 80 72 70 84 96 98 89 84 84 85 81 82 78 78 76 79 81 81 80 79 78 80 78 80 83
77 74 72 83 96 88 81 81 83 79 77 84 77 78 78 80 80 80 81 81 78 73 72 76 80 78 78
74 79 81 75 74 77 82 86 86 79 78 83 80 88 85 84 71 64 73 73 74 79 81 81 80 80 80
83 70 66 68 78 76 78 93 94 89 68 85 90 92 87 68 66 71 73 78 82 79 79 80 82 83 85
67 71 75 80 84 84 89 97 98 94 84 92 94 94 94 91 82 78 78 78 78 80 83 85 88 91 90
78 83 89 92 89 94 93 94 94 99 96 99 97 98 94 90 85 75 75 80 85 89 90 92 94 91 90
88 91 95 95 94 99 90 93 94 90 93 92 100 100 99 94 91 89 84 83 87 91 86 88 94 96 96
94 96 98 98 96 97 100 99 99 92 83 90 93 95 97 97 98 92 87 91 86 91 91 91 90 94 94
100 99 99 97 98 97 99 98 97 92 91 89 87 92 97 100 96 91 91 90 90 92 95 94 90 91 90
100 100 100 100 99 98 97 98 96 92 92 92 94 96 89 84 91 96 94 94 92 94 94 96 92 85 85
100 100 100 100 95 97 96 96 93 91 90 92 97 96 94 89 69 72 95 97 96 93 92 93 95 91 88

GFSFLT2_925_rhum_024.txt.gz
RH
57 58 64 67 66 59 65 72 65 74 76 71 69 67 66 67 67 68 68 72 76 75 78 79 76 76 78
69 68 72 72 71 74 76 67 76 78 76 70 67 69 69 73 75 72 72 69 71 74 72 72 71 73 71
77 74 76 73 79 84 84 79 72 74 67 68 69 75 79 77 75 74 74 75 75 74 71 72 71 78 77
76 80 81 83 83 85 77 74 73 71 72 78 80 80 76 76 78 78 80 80 80 78 75 78 83 82 82
82 88 90 79 81 79 82 76 76 80 76 79 77 82 79 80 78 78 83 85 79 79 80 79 80 84 84
84 92 87 84 81 83 82 88 88 76 86 84 82 83 80 77 81 85 81 79 78 78 80 81 82 86 82
80 85 87 82 80 86 97 98 90 86 85 84 80 82 78 78 78 80 81 83 84 82 78 78 82 86 91
80 78 77 90 98 90 81 86 88 82 80 86 77 79 78 76 79 83 84 84 83 79 76 73 74 76 77
76 81 83 79 73 80 87 91 87 82 82 85 82 80 81 81 71 63 79 77 74 76 79 79 80 80 80
82 68 60 62 78 81 84 95 95 89 70 80 86 90 83 68 68 66 72 75 82 84 83 81 80 81 82
65 65 70 79 84 86 89 100 99 95 88 95 93 94 94 92 83 80 79 80 78 81 83 85 86 87 89
80 86 88 89 87 90 88 92 96 100 91 100 95 98 95 91 86 76 76 79 84 90 91 92 94 92 87
94 94 96 95 92 93 92 92 97 94 95 95 97 98 99 94 91 90 88 83 86 91 91 88 86 94 100
95 98 100 98 99 98 100 100 100 95 88 89 94 97 97 98 98 93 88 93 86 91 94 96 98 100 99
100 100 98 98 100 99 100 100 98 93 92 89 88 94 99 100 96 92 91 91 90 93 97 96 94 93 94
100 100 100 100 100 99 98 98 96 93 94 92 94 96 89 84 92 97 95 95 93 94 97 98 92 86 88
100 100 100 100 97 99 98 97 94 92 92 93 97 96 94 89 69 72 95 98 96 94 94 93 93 89 89

GFSFLT2_925_rhum_027.txt.gz
RH
53 51 62 64 65 64 61 61 62 74 78 79 78 75 72 70 70 70 69 72 81 80 81 79 80 74 74
60 64 68 67 71 72 64 64 70 68 82 80 75 73 74 74 74 78 82 84 78 69 70 69 67 75 73
76 72 72 74 77 74 78 79 72 74 75 74 75 78 80 77 74 74 75 76 75 74 75 74 71 69 70
72 73 76 80 84 82 82 78 80 75 77 82 84 83 77 78 82 84 83 82 82 80 80 77 74 80 80
78 79 87 88 85 81 86 86 86 81 78 82 73 83 74 77 73 79 84 88 88 83 77 77 77 84 83
80 92 91 84 84 88 90 96 87 78 83 87 85 82 75 72 72 86 85 84 82 79 77 81 80 87 86
79 79 83 81 79 89 98 100 90 86 88 88 81 82 73 69 74 80 82 83 84 82 79 79 75 81 84
78 78 76 81 96 98 92 85 89 88 82 84 75 80 73 72 76 82 83 84 84 83 80 75 78 81 80
75 80 85 81 74 79 86 95 90 83 83 85 84 78 80 80 67 58 79 80 77 76 77 78 76 79 81
79 73 62 61 74 80 85 96 97 89 69 82 86 93 86 65 66 66 70 72 82 85 84 83 82 81 87
70 64 69 75 82 83 89 99 100 95 88 95 93 95 95 91 83 79 79 79 76 80 84 86 88 88 93
79 85 87 85 82 86 85 87 95 100 85 100 96 98 95 91 86 76 77 80 84 88 89 87 95 94 90
95 93 91 92 88 86 86 91 96 96 92 90 100 100 99 94 92 90 89 84 86 92 92 88 86 90 97
92 95 97 97 95 96 99 100 100 95 88 87 91 95 97 97 98 93 89 93 87 92 95 96 97 100 100
97 100 100 100 99 95 100 100 99 95 94 89 91 94 98 100 96 92 91 91 90 92 96 97 94 96 98
100 100 100 100 100 100 100 100 99 96 96 93 95 97 88 82 90 96 95 96 93 95 98 98 92 87 89
100 99 100 98 99 100 100 100 97 95 94 96 98 96 93 89 68 72 93 98 97 96 93 90 92 88 87

GFSFLT2_925_rhum_030.txt.gz
RH
52 48 51 58 59 62 65 61 55 61 79 80 83 80 78 76 74 72 72 72 74 74 78 82 81 78 78
57 56 62 62 66 71 68 62 65 56 84 84 81 80 80 80 76 75 75 76 78 74 78 79 80 73 68
68 69 71 68 72 76 74 71 68 67 78 82 82 85 85 82 78 77 76 75 75 74 72 72 70 69 69
71 72 73 74 82 85 85 80 80 77 70 74 84 82 80 80 82 86 86 85 83 81 79 77 76 74 72
74 78 82 85 87 80 88 87 89 76 73 78 75 77 68 69 76 80 85 90 89 84 81 80 84 86 84
78 86 90 81 81 86 91 96 88 74 80 86 84 81 74 69 62 85 86 85 85 85 80 77 82 82 87
85 82 82 78 79 86 96 100 98 90 90 90 84 82 67 66 71 81 84 86 88 87 85 80 78 78 83
80 80 77 81 90 96 87 87 91 86 85 90 76 77 69 71 74 83 80 83 83 83 83 78 77 81 85
78 84 86 82 76 80 86 95 91 84 84 88 86 77 80 78 63 61 77 78 76 77 80 82 83 78 81
81 76 62 60 68 79 86 96 98 91 73 81 82 90 88 66 66 67 71 73 82 86 85 84 86 86 90
72 61 66 71 75 81 87 98 100 96 89 96 94 96 95 92 82 79 77 74 73 78 85 88 90 91 95
74 79 82 80 79 82 83 86 94 99 82 100 96 99 96 91 86 76 77 81 84 88 88 88 92 95 92
93 91 89 85 83 81 81 84 88 86 84 84 96 100 100 95 92 90 90 82 87 88 81 82 84 89 94
92 92 88 89 89 90 94 93 100 90 87 87 88 94 98 99 100 94 90 94 86 92 94 96 98 100 100
94 96 95 95 92 92 97 99 100 97 95 85 89 94 97 100 99 94 92 91 91 93 97 97 94 95 98
95 95 96 97 98 96 100 100 100 97 98 93 95 98 87 80 84 96 96 98 94 95 97 98 92 88 90
95 94 95 96 100 98 97 100 99 97 97 98 100 98 94 90 70 73 92 98 97 94 93 93 94 90 88

GFSFLT2_925_rhum_033.txt.gz
RH
47 46 45 46 52 56 61 68 70 64 74 79 85 83 81 80 78 76 75 71 72 76 78 83 81 85 83
59 55 51 56 59 66 70 71 71 66 74 88 85 84 85 83 82 80 77 75 75 75 73 71 70 73 67
58 64 70 63 74 79 83 79 75 70 79 80 84 86 89 85 83 81 80 80 80 80 78 76 73 70 67
73 76 76 76 84 84 77 71 68 74 79 79 84 81 80 81 84 87 88 89 88 85 83 81 79 75 76
76 78 79 75 74 74 76 73 79 84 80 78 75 76 75 76 77 62 59 85 91 89 84 81 85 86 86
84 76 76 81 78 77 80 86 81 72 79 75 78 74 73 74 66 76 86 86 85 86 83 79 81 82 84
85 82 80 77 83 93 93 94 88 79 79 80 74 72 71 71 76 80 84 87 88 88 86 84 80 78 82
86 83 82 82 90 99 94 83 81 77 78 80 66 66 67 70 74 80 82 83 83 83 82 80 79 80 81
81 86 87 84 80 80 88 85 83 72 73 76 71 69 70 71 70 62 77 78 77 77 80 82 84 83 84
80 77 63 60 68 85 91 98 94 85 75 80 75 77 77 64 64 68 74 77 81 86 87 86 86 88 91
74 69 77 80 84 88 94 100 100 96 84 94 90 91 89 86 76 71 73 75 77 78 81 86 90 92 95
76 78 84 92 87 85 83 85 94 97 79 100 99 98 95 90 83 74 73 78 83 87 92 94 95 94 92
86 92 96 84 80 79 79 84 94 90 80 81 93 100 100 96 91 90 89 81 87 92 91 96 96 96 97
92 94 94 94 99 98 100 100 100 90 85 82 85 92 100 100 98 93 91 94 87 90 92 95 97 98 100
100 99 95 97 99 97 97 100 100 95 94 88 93 99 100 100 99 97 94 91 90 93 96 95 91 92 94
100 100 100 100 100 99 100 100 99 96 97 96 98 99 89 82 87 99 92 91 91 93 95 97 91 86 87
96 95 98 99 100 100 100 100 96 93 95 96 100 97 93 89 70 73 90 95 94 93 91 90 91 90 90

GFSFLT2_925_rhum_036.txt.gz
RH
58 56 74 86 68 57 59 59 58 60 67 73 76 82 84 82 81 80 79 77 74 72 70 70 80 77 81
93 93 89 73 89 74 64 63 60 60 68 76 82 85 84 86 86 83 81 78 77 74 74 72 70 69 68
99 95 96 94 96 85 73 61 62 63 61 64 73 78 82 85 84 82 82 82 82 81 80 79 78 75 73
86 85 94 96 92 77 63 58 56 54 61 71 77 79 84 84 84 86 87 86 86 87 85 84 82 80 77
91 97 92 72 58 58 62 58 57 63 65 63 60 60 63 65 67 72 75 79 84 87 86 84 82 79 81
93 77 57 57 60 60 62 66 68 68 64 65 63 61 61 61 62 69 76 82 85 86 86 84 80 79 77
73 62 61 63 72 84 74 76 81 74 68 66 64 63 60 58 61 67 74 80 85 88 88 85 81 80 82
72 70 70 69 69 84 88 84 70 65 63 67 62 60 58 59 62 66 71 76 81 84 85 84 82 80 77
80 80 84 83 82 75 75 76 76 68 64 65 63 61 62 62 62 62 68 73 78 82 83 84 85 85 82
66 67 66 60 70 79 78 85 86 83 64 73 73 74 78 64 61 63 67 67 71 74 78 82 85 86 88
63 53 57 64 68 73 79 91 97 95 84 88 87 86 87 84 74 69 70 68 68 71 72 77 83 85 89
53 60 64 78 89 94 98 100 100 100 88 100 97 98 96 92 86 72 69 74 80 85 86 89 91 90 89
66 74 84 92 100 100 100 100 100 100 100 96 100 100 100 98 93 90 88 82 84 92 96 95 93 92 94
75 77 80 85 89 93 97 96 96 91 87 89 94 100 100 98 98 93 92 93 86 90 92 93 94 94 93
88 87 84 82 88 91 96 98 98 91 88 87 90 95 96 99 97 93 90 88 88 90 94 96 92 90 90
99 99 99 99 98 98 97 94 91 90 90 91 93 93 89 85 88 94 90 88 86 86 91 95 92 86 88
100 100 100 100 100 99 96 95 93 89 89 90 96 94 93 89 70 72 78 82 86 90 90 89 90 88 89

GFSFLT2_925_rhum_039.txt.gz
RH
69 66 65 67 80 90 83 71 67 66 64 68 75 76 77 80 83 81 80 80 78 76 74 70 69 68 79
89 95 97 99 98 93 75 80 72 72 77 83 82 78 78 82 84 84 82 82 80 78 77 74 73 72 72
99 97 96 97 89 93 93 86 79 70 63 60 56 62 74 81 83 83 84 84 83 82 81 80 80 79 77
99 98 97 91 95 92 86 71 62 58 55 59 65 70 74 75 74 76 80 83 85 85 84 85 84 83 81
98 98 92 86 85 69 64 61 60 61 63 66 61 61 63 65 65 66 67 70 75 80 82 83 83 82 79
88 83 77 66 56 58 65 74 75 65 70 75 71 67 65 64 64 65 68 73 77 82 84 84 81 82 77
87 73 62 59 70 74 76 79 78 74 75 75 69 68 64 61 61 63 67 71 75 79 82 84 82 81 82
72 70 69 69 68 68 73 81 78 72 66 69 66 65 62 62 63 65 67 70 74 79 83 85 84 82 80
77 79 81 81 81 80 82 80 80 75 71 72 69 69 68 68 64 67 64 66 70 75 77 80 84 82 82
62 64 66 64 64 68 73 82 84 86 71 71 74 80 90 66 69 64 68 70 71 71 75 76 77 78 81
66 58 50 54 61 66 71 76 86 90 89 92 91 95 89 88 83 80 78 74 73 74 76 80 81 84 84
50 50 58 68 79 86 92 95 96 99 99 100 98 97 96 95 92 83 82 84 87 90 90 92 90 91 89
59 67 77 82 85 87 99 100 98 98 97 94 100 100 100 98 95 92 92 88 89 87 91 92 95 96 98
74 75 77 78 81 86 91 94 95 94 96 91 92 97 100 98 99 94 90 95 89 93 96 97 90 89 94
85 88 88 87 89 90 92 94 95 95 93 91 92 91 98 100 98 92 91 90 89 91 94 97 96 91 97
96 97 97 98 98 98 98 98 96 92 89 90 90 91 92 92 96 99 98 97 91 87 90 95 92 87 88
99 98 98 100 98 98 96 98 96 90 91 93 94 94 94 91 73 73 79 87 89 89 90 92 92 89 91

GFSFLT2_925_rhum_042.txt.gz
RH
96 95 90 71 67 61 57 68 90 88 79 73 73 76 81 84 83 82 83 82 81 79 78 75 72 70 68
91 90 86 79 69 82 97 90 67 56 72 77 83 82 77 72 74 81 84 84 83 82 80 78 74 74 70
99 98 98 99 99 96 88 70 62 57 77 70 61 60 65 72 80 83 84 85 85 85 84 82 80 78 77
99 99 98 99 96 91 78 69 70 63 60 60 63 66 72 72 71 72 75 77 78 80 81 82 82 82 81
98 97 98 98 95 74 81 75 62 60 61 63 68 68 64 61 67 69 70 72 74 75 78 79 79 79 79
98 93 82 76 74 76 70 71 80 62 72 60 66 65 66 65 66 73 72 72 72 74 77 80 79 80 79
81 84 75 67 68 68 68 69 73 67 76 80 76 73 67 66 67 70 73 74 74 76 78 80 82 81 78
83 76 73 72 72 74 75 79 82 79 72 76 70 68 62 61 58 69 77 80 76 74 75 78 82 80 81
76 76 75 78 83 81 83 84 87 79 73 77 76 71 65 57 58 62 71 76 78 80 79 78 78 80 77
64 63 65 66 66 66 68 75 79 85 80 79 78 86 86 70 69 69 71 72 84 85 84 83 81 79 81
68 67 56 48 53 60 65 68 75 80 83 91 98 100 94 89 83 85 81 75 81 81 87 90 94 92 88
58 50 55 63 68 74 80 88 93 93 94 97 98 98 99 96 91 84 86 91 90 84 84 76 85 93 94
60 68 74 76 76 76 78 90 93 96 97 98 98 97 100 98 95 92 89 84 85 82 82 91 86 82 88
71 76 81 82 85 83 87 87 93 89 92 98 99 98 100 100 100 97 93 95 88 92 93 93 90 88 82
84 88 92 94 96 96 94 93 99 93 93 92 87 89 96 98 98 96 94 96 96 94 97 98 92 86 92
92 96 96 96 96 95 95 98 99 95 92 92 93 98 98 94 96 99 98 98 97 99 99 100 93 89 90
95 92 92 93 96 93 93 97 96 96 94 94 99 98 94 91 75 75 80 86 90 90 93 94 95 92 91

GFSFLT2_925_rhum_045.txt.gz
RH
95 97 100 99 100 99 100 94 90 89 78 88 100 85 79 81 84 84 84 83 81 79 77 76 74 70 71
100 99 100 100 100 98 97 91 88 89 97 98 86 81 85 81 74 72 76 81 82 82 81 79 76 72 76
100 100 99 98 100 98 93 93 100 94 86 85 80 69 66 68 72 77 82 83 84 83 80 82 81 80 78
100 99 99 99 100 100 99 95 67 67 65 65 66 69 72 77 77 76 78 80 79 79 80 81 82 81 81
99 100 100 100 99 92 83 77 72 64 64 57 63 61 60 60 60 62 73 77 80 79 78 78 79 77 78
99 98 98 87 79 82 83 74 72 66 69 62 64 60 59 61 60 71 81 77 77 77 79 79 79 78 78
88 84 80 71 70 70 72 72 72 66 77 79 62 64 59 59 60 77 79 80 80 82 83 83 83 82 79
88 84 78 75 77 80 79 81 81 79 74 81 71 70 61 57 59 74 85 85 82 82 84 85 85 83 81
83 78 76 76 78 84 85 86 89 80 72 83 80 79 68 61 61 64 68 64 69 87 90 91 90 88 85
71 65 63 62 66 68 64 71 80 82 86 86 88 89 88 72 68 65 66 67 71 84 89 95 96 94 89
65 66 59 49 56 59 62 68 72 74 77 83 98 97 91 90 86 82 80 76 76 73 72 75 74 97 94
60 53 62 73 78 81 83 82 86 89 92 95 96 93 94 93 92 85 85 84 81 78 73 70 75 81 90
64 69 73 78 79 80 80 81 82 85 89 95 94 93 94 97 95 95 94 83 79 79 77 83 79 77 85
74 82 85 89 92 94 94 91 90 91 91 92 95 94 96 100 100 98 95 98 88 94 97 91 92 89 92
91 92 93 96 95 92 93 91 99 99 96 92 87 90 95 98 99 96 95 93 92 97 100 100 100 97 99
94 97 95 92 92 93 94 98 100 98 97 93 94 99 97 94 97 99 96 96 97 99 100 100 93 92 94
96 96 95 95 96 96 99 99 100 98 97 94 95 100 94 92 75 74 77 84 90 90 92 90 94 92 92

GFSFLT2_925_rhum_048.txt.gz
RH
97 92 92 96 100 100 100 100 99 98 100 99 100 100 100 100 89 84 84 83 82 81 79 77 76 74 72
99 100 99 100 100 100 100 99 100 99 100 98 100 100 99 92 88 85 79 76 77 80 81 79 78 74 72
100 100 100 99 100 100 99 100 100 100 99 99 99 99 92 80 73 73 76 79 83 84 80 80 79 84 83
100 100 100 99 100 100 100 100 100 99 95 81 74 71 75 77 79 82 84 84 84 83 82 81 82 81 80
100 99 100 99 99 99 99 98 87 75 69 63 63 55 52 56 56 63 76 77 79 81 83 82 80 77 76
99 99 100 99 97 95 90 85 71 68 66 60 62 45 48 56 60 62 84 86 85 82 82 82 80 79 77
94 87 83 75 72 72 74 75 74 70 77 75 61 54 54 58 59 72 85 85 85 85 85 86 84 79 80
89 85 80 77 79 83 85 86 85 81 77 84 69 65 60 57 59 62 86 88 89 90 90 91 90 89 88
87 82 81 80 80 82 86 88 88 80 72 77 79 80 66 62 64 74 90 76 62 71 90 93 95 95 93
76 74 68 58 58 72 71 68 75 78 84 85 88 85 90 73 70 72 69 65 66 68 92 95 98 96 82
70 58 61 52 53 62 60 62 67 70 73 84 87 86 88 88 86 76 77 75 72 69 71 71 79 92 92
60 56 68 77 79 81 81 82 82 83 82 88 92 92 93 93 88 87 88 91 86 80 74 74 73 91 95
64 70 74 80 84 86 85 87 88 87 87 88 91 91 97 97 94 92 93 89 84 85 81 79 83 81 81
79 85 87 91 96 98 96 98 96 86 81 84 91 90 99 99 99 96 95 98 85 93 96 96 97 93 93
91 94 93 96 97 97 92 92 96 99 92 85 84 87 94 98 100 99 100 99 96 96 97 98 98 98 98
95 93 94 94 94 93 94 96 100 100 98 90 90 96 96 88 97 100 99 99 96 96 96 100 95 91 91
90 94 93 94 96 97 94 97 98 98 93 90 91 99 97 94 76 74 75 82 88 93 93 98 95 90 93

GFSFLT2_925_rhum_051.txt.gz
RH
98 96 94 92 99 99 100 100 100 99 97 100 98 97 98 98 100 100 100 99 95 91 87 85 82 78 76
100 99 100 100 100 100 100 100 100 100 100 99 99 99 97 100 100 100 97 95 90 82 79 79 79 78 76
100 99 99 100 100 100 100 100 100 100 100 100 100 98 98 98 100 99 88 79 78 80 82 84 80 79 78
100 100 100 100 100 100 99 100 99 99 99 98 97 94 96 91 85 83 84 85 89 88 86 84 82 81 80
99 99 100 99 100 100 100 99 98 98 88 74 82 79 66 56 50 52 71 81 85 83 81 82 82 80 80
99 98 98 98 97 97 97 90 75 71 71 64 62 58 49 44 43 49 76 83 80 85 86 83 81 81 83
88 88 83 76 74 73 75 76 75 72 75 73 66 56 44 50 58 75 87 88 88 87 85 83 82 84 82
86 84 79 80 83 86 85 85 86 83 82 90 66 60 58 59 60 59 81 89 90 90 89 89 91 94 94
90 85 85 84 82 78 84 87 83 79 71 80 80 82 67 65 69 70 80 94 93 78 87 95 96 96 95
70 69 66 63 60 62 72 76 72 76 83 88 87 86 90 74 76 88 95 80 68 81 95 92 97 97 87
56 53 54 54 57 73 74 69 68 68 71 83 89 83 85 85 84 71 68 65 66 69 64 63 70 95 93
54 58 69 75 78 79 80 80 82 83 81 84 93 93 92 93 88 84 79 75 77 69 70 69 72 96 99
72 76 79 85 85 85 87 91 92 90 88 85 88 94 99 98 97 94 92 87 85 81 82 75 72 76 84
84 90 90 92 95 99 95 93 98 90 79 80 82 93 100 100 100 98 95 96 84 88 91 94 96 99 100
90 89 93 93 96 98 97 92 96 98 88 76 79 85 88 91 100 98 97 97 99 100 100 100 94 98 100
83 87 88 90 91 93 94 98 96 94 90 82 83 94 94 83 81 99 100 100 98 95 97 100 99 90 88
92 89 85 87 93 95 98 97 100 96 91 88 92 100 95 95 80 77 88 86 85 90 84 93 97 87 84

GFSFLT2_925_rhum_054.txt.gz
RH
100 99 95 93 94 98 92 93 95 99 100 100 98 98 90 96 100 98 94 99 100 100 100 100 99 99 98
100 99 95 97 99 99 100 100 100 100 94 100 100 100 100 99 98 99 98 97 98 99 100 94 87 81 81
100 99 99 99 99 99 99 99 99 98 99 99 98 97 99 100 99 98 100 99 100 95 86 82 81 82 80
99 100 99 98 99 100 99 99 99 97 98 98 98 99 100 98 99 99 96 92 90 88 87 88 89 85 80
99 99 99 98 100 100 100 98 95 97 93 88 82 88 90 79 70 61 52 54 74 81 84 82 82 82 81
98 98 97 95 90 89 89 86 78 71 69 64 63 60 57 53 45 40 43 73 82 78 77 81 81 80 82
87 89 84 80 77 76 77 78 78 75 81 78 66 55 42 46 53 63 90 91 90 89 87 83 82 82 82
83 84 84 88 87 86 87 85 82 73 71 93 71 60 61 61 60 57 59 92 91 89 86 85 86 87 89
87 87 84 82 85 82 78 87 86 80 76 82 80 79 67 72 76 99 94 94 92 97 96 96 97 96 95
60 52 52 52 55 57 59 74 77 71 78 84 86 83 81 73 72 76 94 94 92 86 71 96 97 88 73
47 49 53 61 69 75 80 80 76 71 73 95 95 90 87 81 79 74 71 67 72 75 68 65 72 78 84
53 60 67 69 74 78 81 83 84 85 83 87 94 96 94 95 92 81 78 74 72 64 64 68 71 88 95
74 77 82 85 86 89 91 94 91 92 94 92 87 88 94 100 97 97 99 86 85 84 81 75 73 74 77
85 88 84 90 92 96 98 95 94 91 81 76 83 89 93 100 100 100 100 99 83 83 88 92 87 82 83
82 86 88 90 90 94 94 93 95 94 89 65 66 76 82 88 98 93 82 88 90 89 94 100 100 98 94
86 88 86 87 87 89 92 93 97 95 89 70 72 84 85 74 75 76 85 84 75 85 96 100 100 94 79
74 74 80 91 99 96 93 94 96 97 85 79 87 99 96 96 78 83 88 85 82 91 89 94 96 89 79

GFSFLT2_925_rhum_057.txt.gz
RH
100 97 93 90 89 94 94 93 93 94 100 100 100 100 100 96 91 97 88 95 95 95 99 98 99 100 99
100 97 95 95 99 100 96 100 98 99 100 100 98 95 92 89 92 94 93 93 98 96 94 96 98 98 99
99 98 97 96 99 98 99 98 98 98 95 95 90 95 98 98 98 99 99 99 99 100 100 98 100 98 93
98 99 99 97 98 98 98 90 88 87 86 87 91 98 99 99 100 99 99 99 98 98 99 96 91 90 87
100 98 97 98 100 100 96 95 96 81 72 74 74 77 86 91 84 78 74 70 75 78 78 82 84 81 81
97 89 90 86 82 83 82 75 70 71 75 66 57 61 57 53 51 49 46 47 65 76 78 76 81 81 81
83 86 82 81 76 81 86 84 76 76 78 66 60 62 45 42 44 47 64 86 88 87 88 85 82 81 86
85 86 89 91 89 84 83 83 81 77 66 70 75 67 72 64 59 66 61 82 93 90 86 84 83 87 87
82 83 84 83 87 84 87 82 64 72 78 84 78 80 79 78 80 97 95 98 95 89 91 92 91 90 92
51 42 42 46 50 53 56 78 78 71 78 88 84 84 78 74 72 67 66 83 94 99 100 99 99 93 92
42 46 54 63 69 73 77 82 82 84 83 96 96 92 87 84 79 79 80 72 69 73 77 78 78 90 92
52 61 66 68 71 75 78 82 84 86 85 89 97 98 98 92 84 80 81 86 83 84 83 70 66 68 90
70 73 78 82 83 85 88 94 92 86 86 91 91 91 96 100 92 92 94 88 95 96 74 69 71 74 74
76 79 80 80 89 95 100 100 100 97 85 82 76 80 98 100 100 100 99 99 88 93 91 93 96 88 84
81 83 85 88 92 92 92 94 97 94 95 93 65 67 70 75 97 90 85 84 90 98 100 97 96 95 94
65 68 82 94 96 96 97 96 91 92 93 92 96 92 86 71 71 75 88 92 96 98 100 100 100 94 90
62 64 68 70 81 92 93 95 92 91 91 96 99 100 92 91 77 87 99 97 97 94 95 96 97 87 90

GFSFLT2_925_rhum_060.txt.gz
RH
99 96 96 97 97 92 97 96 97 100 99 100 100 100 100 100 100 93 90 87 86 86 97 99 97 98 100
100 100 97 93 99 99 98 96 100 96 98 99 97 95 94 93 91 89 87 86 88 95 98 98 99 99 96
100 98 96 91 99 100 96 92 94 92 93 95 97 97 94 96 97 91 89 94 91 96 94 92 94 98 99
99 100 100 99 99 100 90 94 95 89 80 79 81 82 86 92 96 97 99 99 99 99 99 97 98 98 94
94 92 88 87 93 90 79 74 75 73 66 63 64 66 69 73 78 79 82 92 93 93 91 91 90 90 85
90 76 78 73 69 68 65 60 58 72 60 48 54 53 54 58 61 46 47 49 62 74 76 75 73 77 81
60 61 61 66 81 83 74 71 60 58 62 48 50 44 47 52 67 45 42 65 84 83 82 82 85 82 80
76 77 82 84 85 88 77 74 64 56 68 56 53 56 59 64 68 73 98 94 90 93 90 87 82 82 90
73 75 80 81 81 78 80 67 55 48 64 70 61 64 61 64 70 69 67 80 92 94 88 88 85 85 84
56 51 48 54 46 63 67 79 67 68 69 77 74 76 78 63 66 66 71 70 71 80 89 96 97 94 90
46 48 60 69 74 82 81 92 90 83 79 91 97 87 81 80 74 68 70 72 75 74 80 90 97 96 90
48 49 58 71 84 88 85 89 96 89 86 96 99 98 93 92 80 72 71 76 83 87 90 93 92 92 94
52 66 78 90 73 86 95 99 97 99 96 89 99 100 100 98 88 86 88 80 88 95 100 99 96 93 94
63 66 74 92 89 91 94 91 93 90 96 95 93 97 99 93 94 97 91 92 87 89 93 97 97 93 93
68 68 66 68 79 83 87 87 86 84 83 90 99 100 97 97 93 82 75 73 78 88 97 97 93 93 92
74 77 75 78 80 83 88 86 82 78 78 81 85 87 83 78 80 88 83 84 88 94 98 98 98 93 91
79 83 88 89 86 81 78 80 79 78 77 82 88 89 86 84 74 87 92 93 92 92 90 91 93 91 89

GFSFLT2_925_rhum_063.txt.gz
RH
99 100 96 92 96 97 100 100 100 99 100 100 99 99 100 100 100 98 94 91 88 90 97 97 98 95 98
99 100 99 95 99 99 99 100 100 97 95 99 96 93 92 92 92 92 91 88 85 84 86 96 98 98 100
98 99 99 91 98 100 100 87 98 89 85 94 92 90 91 90 89 91 90 88 86 86 85 88 89 89 99
98 98 97 99 99 98 87 83 86 78 71 67 70 72 76 83 87 90 96 97 97 96 97 94 87 91 98
88 93 85 84 87 87 76 70 68 64 60 58 53 61 62 62 66 69 74 81 91 93 88 88 90 94 95
89 77 76 72 64 66 65 68 65 62 55 46 46 51 47 51 53 49 33 35 44 64 75 79 80 79 78
59 59 59 67 76 79 78 75 66 64 58 53 47 49 48 56 64 57 52 51 39 62 84 82 80 82 83
74 76 79 81 81 83 78 77 68 57 56 58 51 58 59 61 64 59 61 67 94 85 92 90 88 85 78
57 57 59 62 67 70 82 71 68 46 57 71 66 66 64 62 64 60 65 71 63 89 95 89 82 82 79
55 49 48 53 39 51 62 83 77 74 69 78 86 80 88 66 64 66 68 70 72 67 80 86 86 88 84
45 44 53 64 69 75 71 81 94 86 86 83 93 90 84 83 80 73 71 70 72 76 78 83 94 95 97
45 44 47 57 76 80 79 71 91 90 87 98 93 93 92 92 92 76 75 75 76 82 86 88 94 92 91
47 52 66 82 84 66 81 89 90 80 81 85 100 100 98 96 95 96 91 81 75 78 79 84 90 94 94
57 60 65 77 87 90 92 92 90 89 88 91 98 100 100 100 99 99 96 94 77 81 86 86 92 90 90
60 64 64 63 70 80 86 88 90 88 85 86 86 89 91 95 100 98 92 86 77 77 84 93 98 98 95
69 75 74 72 77 80 83 89 91 88 83 81 82 91 90 84 83 80 91 87 82 89 91 94 96 97 93
74 79 84 88 88 86 83 81 83 83 82 81 84 92 95 94 77 76 85 87 91 91 92 94 96 92 92

GFSFLT2_925_rhum_066.txt.gz
RH
100 100 99 98 94 97 99 99 98 97 98 98 100 99 99 100 100 100 100 99 98 94 92 90 93 93 92
100 100 99 99 96 99 98 97 100 92 91 99 98 94 95 94 92 93 93 91 91 94 97 95 96 96 98
98 94 99 92 97 99 99 87 86 83 74 77 77 79 88 96 95 89 86 88 90 92 92 90 94 94 92
93 93 92 94 98 94 83 79 77 72 68 67 60 66 67 64 79 83 88 93 93 95 94 97 92 84 90
83 84 81 83 84 81 71 65 70 67 50 51 49 47 56 59 62 63 64 70 81 87 87 85 85 86 94
82 81 77 74 66 66 67 68 71 62 60 38 46 45 43 44 43 40 37 26 26 35 48 65 77 83 84
63 62 65 66 64 63 79 75 74 61 57 39 50 48 56 59 60 62 57 63 80 62 77 86 85 83 82
72 73 72 78 77 79 74 75 69 64 56 58 56 60 55 58 61 57 54 60 62 81 82 94 92 90 86
51 51 52 54 60 65 74 81 70 54 60 60 70 71 61 64 61 59 64 76 69 63 92 97 96 92 84
57 47 41 40 39 40 64 67 82 76 73 64 82 76 75 73 66 69 70 66 72 76 82 86 88 87 82
44 43 45 56 64 63 59 64 84 89 94 87 85 85 88 85 76 64 69 70 72 72 73 72 85 89 91
43 43 45 53 62 69 62 66 72 78 87 95 93 86 89 89 91 75 66 62 63 66 79 81 82 85 96
45 48 53 62 76 83 72 74 79 77 78 83 86 88 99 93 94 96 100 70 62 64 65 59 70 80 84
52 58 61 67 64 68 84 88 92 89 82 85 89 91 98 100 100 100 100 96 55 57 61 64 68 81 89
51 59 60 63 64 66 79 86 90 90 83 82 86 89 90 92 98 94 86 86 69 65 76 82 87 95 100
54 62 68 69 66 69 78 82 84 84 85 85 85 91 99 93 88 81 87 84 71 76 91 95 87 86 82
54 61 69 77 78 81 84 82 81 82 84 82 83 85 98 90 79 68 78 76 82 94 92 90 95 86 85

GFSFLT2_925_rhum_069.txt.gz
RH
100 100 99 97 93 92 99 99 98 98 98 98 98 100 99 100 100 100 100 100 99 99 98 100 98 95 95
100 100 99 99 94 99 98 98 98 89 95 99 100 98 92 93 95 96 95 92 88 87 97 97 90 87 93
99 97 97 94 96 98 99 89 85 77 72 67 74 77 88 92 88 89 88 89 91 89 86 85 89 91 92
93 92 89 93 97 90 92 79 80 67 63 68 59 62 65 61 69 75 84 89 91 92 92 94 94 90 86
89 88 86 85 85 85 72 66 69 64 50 46 45 45 52 56 53 51 49 51 68 87 88 87 86 84 83
82 80 85 80 73 66 63 62 70 62 52 37 46 44 43 44 46 49 49 38 26 24 38 61 81 86 86
78 73 71 66 65 64 70 72 67 60 59 36 50 50 56 58 58 58 52 50 74 72 67 78 85 85 84
64 67 67 69 70 66 67 70 70 64 57 46 54 57 56 55 61 60 60 71 69 79 88 88 95 93 91
54 57 61 64 67 69 77 80 66 59 61 62 67 65 60 68 64 66 72 77 77 77 75 92 97 98 87
52 46 38 37 39 36 56 66 76 78 74 73 72 66 60 72 68 68 66 68 70 72 74 86 88 85 77
45 41 42 48 55 55 54 56 68 83 88 83 83 76 86 82 61 63 69 69 68 67 66 65 75 93 93
41 41 43 46 55 59 64 59 59 61 74 84 88 86 81 84 81 70 67 58 58 59 58 64 67 75 81
43 42 47 50 56 69 77 75 67 76 80 82 84 88 92 91 89 92 98 66 59 64 48 48 50 53 62
47 50 58 64 68 64 63 72 87 77 79 83 87 92 95 94 94 100 99 88 51 53 59 60 60 67 76
51 51 56 61 62 63 65 77 89 88 80 67 79 87 93 98 100 100 90 88 68 67 79 80 75 74 79
45 49 55 62 67 66 68 76 82 82 84 75 85 90 98 90 76 83 99 82 68 72 81 94 93 76 75
43 47 52 60 68 74 77 81 83 82 75 77 85 88 100 97 80 86 82 76 87 88 80 87 92 76 75

GFSFLT2_925_rhum_072.txt.gz
RH
100 100 100 100 96 94 91 99 98 98 98 98 96 97 92 92 94 96 98 88 80 84 89 97 100 99 100
100 100 100 100 96 92 97 99 96 92 98 97 99 99 96 96 96 95 93 91 89 92 98 96 92 87 82
100 100 100 95 92 95 99 92 85 78 77 74 81 91 97 99 88 90 88 89 90 86 86 85 87 84 84
98 97 92 92 91 92 99 90 81 70 66 69 63 69 74 76 68 72 82 87 89 88 87 86 86 87 87
93 92 92 92 88 93 84 72 71 66 54 49 46 46 48 60 52 44 38 42 62 84 88 90 91 88 86
86 85 85 84 83 71 65 59 64 63 52 40 45 44 42 43 49 52 51 55 31 24 40 70 85 85 85
87 84 83 80 72 66 68 65 59 64 58 40 50 51 54 56 57 58 58 55 70 69 47 41 45 49 58
65 66 66 67 66 62 60 63 68 65 58 47 52 55 57 54 64 61 63 77 72 72 88 77 89 90 93
63 66 68 67 71 69 71 76 66 62 61 58 62 59 59 66 67 69 74 80 80 81 71 85 94 95 87
52 48 40 44 48 39 46 63 69 75 69 68 67 62 56 72 67 65 66 68 67 73 72 81 86 87 79
54 42 39 43 48 44 47 51 54 72 82 74 79 74 72 69 58 59 66 68 66 63 61 60 65 93 95
45 40 41 44 52 57 58 58 56 58 70 76 78 80 76 73 69 67 71 67 57 60 53 52 64 58 75
44 41 42 46 52 62 71 77 74 62 66 70 76 84 88 87 76 77 91 63 60 64 62 49 49 47 47
43 42 46 54 61 70 66 68 77 74 78 82 83 87 92 94 96 97 97 87 54 55 59 57 61 69 69
45 46 50 56 62 62 64 68 81 83 80 80 79 80 86 95 100 100 92 88 70 70 72 69 63 71 71
44 45 46 53 58 63 66 66 72 77 83 82 77 82 95 69 63 85 98 95 67 78 87 94 77 63 62
43 44 44 48 56 64 70 76 79 81 83 80 76 85 100 96 70 83 84 80 83 85 80 84 84 70 73

GFSFLT2_925_rhum_075.txt.gz
RH
99 100 100 100 100 96 93 97 96 97 95 97 97 93 89 86 94 97 95 80 99 99 100 99 100 100 99
99 100 100 100 99 97 97 96 98 98 97 96 98 99 94 88 96 97 94 92 96 88 92 99 100 99 100
100 100 99 100 98 98 97 94 86 83 83 80 88 96 97 99 90 88 90 91 92 91 91 91 88 91 97
100 100 98 96 93 89 99 94 83 74 70 70 67 73 80 82 70 70 78 82 87 89 87 86 82 83 84
98 97 96 95 90 93 96 88 79 72 63 56 54 49 53 64 54 43 36 39 56 80 85 87 86 84 85
94 89 91 88 87 87 81 71 56 64 57 48 41 41 42 45 46 49 50 49 33 24 47 73 81 84 84
86 86 85 83 81 73 65 60 56 62 54 45 49 47 46 51 57 58 59 55 59 62 43 30 30 35 43
90 84 76 77 73 64 62 61 62 62 58 51 51 51 54 53 56 64 66 79 70 64 80 70 78 80 87
67 69 68 67 65 63 64 71 68 61 62 56 56 57 56 61 72 74 69 80 81 84 75 83 90 90 82
52 46 43 52 64 46 52 64 63 72 64 66 68 61 58 71 67 67 67 66 68 73 72 75 83 80 74
58 50 41 39 44 42 44 52 55 63 74 74 74 70 64 63 67 67 64 64 66 65 64 62 63 86 93
51 41 40 41 48 55 55 54 50 55 63 70 71 73 70 63 60 63 66 67 67 58 58 54 57 58 56
47 40 39 41 46 56 58 65 64 58 54 61 66 73 80 78 72 77 75 64 64 60 60 59 48 44 45
50 41 41 46 52 59 74 66 62 61 66 75 82 85 86 88 94 90 87 90 62 77 67 56 51 57 60
57 45 44 52 59 68 72 65 70 74 76 78 80 77 73 81 99 88 80 78 65 66 76 67 54 60 64
53 51 49 51 54 62 64 67 67 67 70 74 81 80 74 53 50 74 97 99 69 75 82 88 73 60 59
45 42 43 45 54 60 63 70 74 74 73 76 79 77 100 89 55 78 87 88 87 88 88 86 82 72 68

GFSFLT2_925_rhum_078.txt.gz
RH
99 100 100 100 100 98 95 92 92 98 96 94 98 100 99 86 97 89 93 82 94 100 99 100 98 99 100
100 99 99 100 100 99 96 95 96 96 95 95 96 99 99 89 91 96 95 88 84 98 97 98 98 99 98
100 100 100 100 100 99 96 96 94 88 90 87 89 97 98 99 86 86 89 92 91 92 90 93 93 96 98
100 100 100 100 100 96 98 97 89 78 75 71 71 76 90 87 73 71 76 77 85 89 89 87 85 85 84
100 100 100 99 97 94 96 95 90 80 70 64 62 55 61 65 56 47 42 47 59 73 79 74 70 72 75
99 97 95 94 91 90 90 87 73 75 65 55 47 40 40 48 43 42 43 43 33 28 44 76 78 80 80
94 91 86 86 86 82 78 67 54 55 56 47 43 43 42 44 53 55 59 58 62 61 40 30 34 38 44
92 92 88 84 83 75 66 62 61 60 55 51 46 50 52 52 54 69 68 80 71 74 82 72 73 76 80
64 69 69 70 69 62 57 61 66 59 59 54 54 55 55 56 67 81 67 77 80 88 80 83 91 88 81
54 52 63 80 62 56 59 66 57 61 59 60 65 57 57 72 69 74 68 64 68 74 74 78 81 73 67
55 49 42 39 40 36 35 44 51 53 62 65 68 64 59 61 71 68 65 63 63 65 65 65 66 70 66
56 45 38 37 41 48 50 48 46 44 53 63 60 66 63 57 53 57 56 57 59 63 62 59 57 58 57
56 46 38 38 45 57 57 60 65 62 56 59 59 59 62 65 69 70 69 62 61 58 59 61 63 54 45
59 46 40 40 44 50 60 69 72 69 70 73 73 74 76 75 82 74 73 79 63 67 71 71 64 56 50
71 55 44 45 52 59 74 75 66 70 75 76 78 76 72 68 72 59 54 61 59 64 68 59 49 51 54
61 57 50 46 50 63 72 71 67 64 66 69 76 81 70 45 42 57 67 67 64 68 72 71 63 60 58
55 47 44 46 54 55 56 64 69 68 67 73 80 83 91 86 44 52 72 74 81 84 81 84 78 72 66

GFSFLT2_925_rhum_081.txt.gz
RH
97 98 100 100 100 100 100 99 95 95 94 94 94 97 98 100 89 84 84 92 94 99 98 99 97 90 94
100 99 100 100 99 100 100 99 95 96 100 95 93 98 97 99 86 86 88 83 72 90 98 99 100 100 100
100 100 100 100 100 100 100 98 95 94 92 96 97 96 99 99 88 82 87 89 88 88 89 94 99 99 98
100 100 100 100 100 100 100 98 93 85 81 74 82 85 99 90 74 72 74 75 82 90 89 88 87 87 91
100 100 100 100 99 98 97 97 94 88 76 70 68 61 75 71 58 50 48 54 61 71 77 83 82 76 73
100 99 98 98 97 96 94 93 87 87 76 68 59 49 44 49 47 42 38 41 34 40 56 76 77 77 75
99 98 93 91 91 91 89 83 71 55 57 57 45 43 42 44 49 56 57 65 62 47 33 37 56 65 69
87 87 85 87 87 85 80 79 72 57 50 61 43 50 48 50 51 66 66 82 66 88 76 70 60 53 60
66 85 84 80 80 76 75 78 83 64 54 49 50 52 52 54 59 81 69 80 82 89 90 87 97 79 73
71 76 82 76 66 61 57 60 65 67 51 58 62 54 65 63 63 74 71 67 79 79 79 81 79 70 67
49 44 43 56 54 41 38 46 48 47 53 57 61 59 54 68 69 68 70 68 68 64 64 63 65 64 60
59 54 46 39 40 43 42 46 44 43 58 63 62 66 58 63 72 55 62 63 61 60 60 60 57 56 56
62 49 39 36 42 54 55 54 52 49 50 60 65 63 62 60 72 63 61 57 56 55 56 59 59 60 54
53 45 41 39 42 47 56 59 66 65 60 56 56 65 68 69 71 67 54 60 55 56 58 59 60 59 58
76 61 46 43 46 50 58 66 70 68 68 64 70 77 74 69 70 53 57 57 45 53 60 59 50 46 48
73 70 56 46 47 57 65 70 80 71 74 76 80 83 75 43 41 69 80 67 56 61 68 74 76 57 60
53 58 58 52 60 58 63 71 80 71 65 66 71 89 79 68 52 48 64 61 69 75 75 81 85 85 72

GFSFLT2_925_rhum_084.txt.gz
RH
90 94 95 99 99 100 100 100 99 98 96 96 94 93 95 95 99 95 84 81 86 91 98 97 96 83 73
96 95 99 100 100 100 100 99 99 97 97 98 97 94 98 96 100 96 86 84 81 78 90 100 100 99 98
100 99 100 100 100 100 99 100 98 96 93 92 96 94 100 94 95 84 86 87 85 81 85 93 100 100 100
99 100 100 100 100 99 100 100 96 90 88 82 86 88 97 91 78 73 74 74 77 82 90 90 91 94 98
100 100 99 99 99 99 100 100 97 92 78 72 70 70 87 79 63 53 49 57 64 70 75 80 83 80 76
100 100 98 97 99 99 98 97 90 89 82 73 70 62 61 64 52 44 38 38 35 44 62 74 79 77 72
100 100 99 93 95 97 96 91 83 70 74 67 61 57 58 44 45 51 53 61 67 44 34 48 72 79 79
94 96 92 86 90 89 90 87 86 78 52 59 52 53 58 56 46 57 62 76 63 88 75 58 48 48 54
64 82 86 88 89 86 85 79 67 65 59 60 55 56 62 64 81 83 70 76 83 85 94 97 93 79 68
83 73 84 80 76 79 89 95 68 60 62 66 62 59 62 71 78 80 79 72 88 82 78 80 76 77 79
58 57 73 87 77 56 62 74 84 74 61 71 78 73 79 75 74 78 72 69 73 72 65 61 60 60 76
54 49 47 55 58 42 38 41 41 44 54 54 61 87 89 77 68 64 75 76 65 64 58 55 55 57 57
55 54 63 66 50 46 46 46 46 48 52 56 63 56 60 85 76 74 70 76 57 57 55 55 58 61 57
57 61 62 43 66 63 78 79 84 88 57 55 54 55 72 71 87 86 85 87 69 59 58 59 56 53 52
66 59 54 63 68 78 82 86 82 74 82 74 58 59 65 73 89 80 72 72 74 78 71 74 79 64 64
86 76 59 68 72 84 88 86 81 74 76 89 92 95 88 65 45 79 69 78 85 89 75 92 86 85 81
77 78 72 72 74 82 84 82 84 79 78 88 94 90 75 69 68 43 90 94 94 90 94 94 94 96 92

GFSFLT2_925_rhum_087.txt.gz
RH
86 87 87 100 99 100 97 100 99 100 98 94 92 94 94 95 92 98 100 87 84 76 79 98 98 82 82
95 92 93 99 99 100 100 99 99 98 96 94 92 96 99 95 95 97 86 85 82 81 80 88 99 100 94
99 100 100 100 100 100 99 99 99 97 95 94 97 96 100 94 92 88 84 81 82 79 82 84 94 100 100
96 100 100 100 100 100 99 99 99 96 93 86 93 93 97 89 87 72 72 74 74 72 79 85 89 91 97
100 100 100 99 99 98 100 99 99 98 90 79 74 74 86 80 72 59 49 52 60 68 71 74 82 77 74
99 99 99 97 95 96 100 100 96 94 90 81 71 68 66 64 64 51 39 35 33 41 59 70 72 73 73
99 99 97 94 94 98 99 96 90 76 80 73 69 67 61 56 48 48 46 50 62 42 38 50 68 75 76
94 95 98 92 93 93 92 93 84 80 63 62 55 56 56 55 48 60 54 60 65 78 67 51 46 51 58
73 85 91 84 83 84 89 90 79 67 65 58 54 55 57 64 68 77 63 70 79 92 98 99 82 73 59
56 65 82 86 88 87 90 86 78 63 62 56 58 57 65 66 74 72 73 74 95 88 84 82 77 74 78
70 73 83 82 72 71 76 84 83 77 61 54 70 65 86 75 74 76 72 74 72 74 75 66 61 62 69
55 50 56 68 66 50 42 49 48 56 51 48 61 82 81 75 70 64 65 67 68 68 68 61 55 55 57
56 51 49 56 66 46 40 39 38 38 44 54 54 55 60 84 78 68 69 66 63 63 61 58 53 55 52
58 58 63 65 56 49 55 55 68 60 48 47 50 49 53 56 72 82 76 71 72 57 54 52 49 47 46
58 62 64 59 66 68 82 80 83 81 84 56 50 50 52 65 78 65 66 75 72 73 65 53 46 49 50
64 59 55 59 67 77 78 81 82 76 78 86 68 84 83 63 49 55 67 69 78 84 70 68 67 69 72
80 78 63 58 74 78 81 84 85 79 77 82 90 91 91 91 72 47 66 88 89 81 81 90 90 85 87

GFSFLT2_925_rhum_090.txt.gz
RH
87 95 94 94 98 100 97 92 94 100 96 92 93 90 93 88 92 95 97 100 95 89 86 86 100 99 69
88 90 94 100 100 100 99 99 99 99 97 96 95 94 94 93 91 91 90 89 87 84 81 81 87 100 99
97 94 96 97 98 99 99 99 99 99 97 94 90 88 99 93 90 92 84 80 79 81 79 80 84 95 100
90 99 99 100 100 99 100 100 99 98 97 93 89 90 99 93 87 76 69 75 73 73 74 74 82 85 92
92 99 100 100 99 97 99 100 99 99 96 91 85 83 84 87 79 69 55 42 48 62 69 73 73 75 74
94 98 99 97 95 96 98 100 99 96 98 90 79 72 70 71 68 64 48 37 34 30 55 71 73 74 71
99 99 98 94 94 95 96 97 95 84 91 79 74 71 67 65 62 51 48 46 51 54 41 55 68 74 73
96 91 93 92 92 89 89 96 90 78 74 67 66 54 58 53 48 48 54 59 64 84 68 54 51 67 68
81 85 90 91 86 87 91 94 89 80 77 61 56 54 56 55 55 60 61 62 81 97 98 97 82 67 54
46 66 83 87 95 84 83 83 80 70 66 57 56 48 58 65 68 70 69 80 96 90 85 82 76 68 64
56 63 75 82 88 89 89 89 86 67 59 55 61 60 92 71 70 74 70 71 72 70 69 62 58 62 62
74 71 81 83 73 73 75 78 86 72 54 42 52 54 61 77 71 67 68 69 67 63 62 60 52 52 57
66 53 50 72 71 55 46 42 48 58 50 42 45 59 64 73 72 62 62 59 65 67 64 58 52 48 47
58 55 51 51 57 56 41 45 47 56 56 56 53 51 52 60 65 62 60 61 72 61 53 48 46 46 43
64 60 59 61 67 56 48 54 75 74 58 52 49 48 47 48 53 50 65 81 64 56 50 42 36 37 41
62 61 63 64 59 72 78 71 76 82 76 64 51 60 56 44 45 47 65 68 71 75 72 61 47 54 63
62 61 60 56 73 77 83 85 79 80 77 78 72 71 97 93 74 54 54 65 71 81 78 73 70 75 81

GFSFLT2_925_rhum_093.txt.gz
RH
89 95 97 92 95 100 100 93 90 91 96 97 93 90 90 90 90 89 88 95 100 99 100 100 100 96 98
93 99 98 100 100 100 98 96 94 95 97 97 93 90 98 93 90 86 85 85 86 88 84 84 88 93 98
95 97 98 100 100 100 99 96 95 95 95 97 92 94 97 93 87 86 86 82 78 76 76 77 80 84 94
91 95 94 97 100 100 100 99 98 99 99 97 93 92 99 95 86 79 65 65 72 72 72 73 77 76 81
93 99 100 100 99 95 100 100 100 100 97 94 93 90 90 93 86 76 66 54 40 42 59 72 74 75 74
95 98 98 94 93 92 99 100 99 89 99 95 92 80 74 79 74 68 64 44 37 36 44 66 73 73 73
85 86 90 94 92 97 98 96 93 88 95 88 86 80 72 70 67 65 53 43 46 57 50 57 68 73 74
89 90 96 92 91 89 91 95 96 88 87 77 74 72 69 65 61 48 50 52 63 86 88 72 88 88 79
91 91 90 87 89 96 97 99 92 84 78 70 64 59 54 52 49 51 66 60 73 96 98 97 74 60 61
81 82 90 90 89 86 85 90 80 81 78 75 59 51 56 59 59 76 75 72 94 91 88 77 70 67 62
65 69 80 91 93 88 84 83 83 75 65 62 57 55 71 68 70 72 73 71 78 74 72 67 61 57 58
57 64 73 83 91 90 88 89 88 85 71 49 52 51 75 78 68 70 72 69 68 65 63 59 53 50 52
75 68 66 66 75 81 82 81 86 91 78 54 48 50 53 57 70 61 64 60 63 66 64 60 55 50 46
70 62 60 78 79 67 56 52 54 69 67 58 52 49 67 67 70 54 53 55 62 62 53 50 48 45 43
66 63 55 60 72 62 49 48 46 56 62 62 58 59 58 50 53 50 55 67 60 57 49 43 38 37 36
63 60 64 64 64 67 55 47 54 67 50 55 56 59 55 42 40 43 56 64 68 69 67 61 44 45 52
66 68 67 67 77 78 74 63 71 75 80 68 60 58 93 85 68 46 53 61 68 73 72 72 61 67 72

GFSFLT2_925_rhum_096.txt.gz
RH
89 94 97 95 90 85 85 89 91 88 88 97 95 89 91 90 87 85 83 81 97 100 100 100 100 100 98
96 100 100 100 94 90 92 98 94 90 89 91 95 97 95 94 91 87 82 83 83 82 86 84 93 100 99
97 100 100 100 100 100 99 98 97 90 87 92 97 99 100 94 91 86 80 72 79 78 75 75 76 78 82
92 100 100 100 99 99 100 99 97 95 96 96 96 94 95 99 95 84 74 66 59 63 66 72 75 75 73
98 100 100 100 100 97 98 100 99 98 98 98 97 95 94 99 91 84 75 67 58 44 35 59 71 75 73
99 99 100 94 90 93 98 100 99 94 100 96 94 93 91 88 85 77 69 64 47 36 40 62 65 74 75
92 91 92 89 87 94 94 98 92 86 98 94 94 92 83 75 74 69 67 57 41 51 59 53 64 74 76
87 85 82 81 81 86 87 92 97 92 91 88 82 81 79 72 68 64 55 48 52 84 97 95 91 86 78
91 88 87 88 92 98 99 100 96 88 91 81 72 73 70 65 58 51 57 52 61 94 96 97 73 63 59
95 92 91 92 91 91 90 99 91 91 82 79 70 66 56 58 53 51 78 62 92 95 99 82 72 68 59
89 89 91 96 98 94 93 88 85 77 76 81 68 62 47 61 65 71 79 73 95 94 77 68 64 58 61
84 87 92 97 98 93 93 89 86 78 75 72 50 53 62 75 66 67 68 71 78 77 68 60 56 55 55
81 77 73 74 91 95 93 91 88 88 85 74 61 44 52 49 66 67 71 66 62 62 61 61 59 54 51
83 69 61 78 88 88 90 95 97 94 85 78 59 52 53 55 57 58 55 49 56 61 63 60 57 51 46
82 76 77 82 79 79 80 84 73 87 90 79 68 60 65 62 70 63 51 51 51 61 61 50 46 43 42
88 81 76 78 83 78 68 61 58 54 65 73 72 77 69 58 51 40 54 54 63 65 58 52 39 37 38
99 98 82 70 82 86 76 62 62 55 56 62 76 63 90 74 60 41 45 46 57 70 67 66 55 67 67

GFSFLT2_925_rhum_099.txt.gz
RH
95 96 100 98 91 92 89 84 86 89 89 88 91 95 87 85 88 87 83 80 74 98 100 99 99 99 99
100 100 100 100 95 92 89 89 88 88 87 88 89 90 92 97 90 90 85 80 81 80 78 91 88 91 97
99 100 100 100 100 100 98 95 91 90 92 86 86 95 99 100 92 91 85 75 66 72 76 74 71 69 70
98 100 99 100 100 99 100 100 94 93 90 89 94 96 99 99 98 95 84 76 68 60 52 55 65 70 70
100 100 100 100 100 99 100 100 100 99 96 96 98 98 97 99 98 94 84 76 68 61 44 35 48 67 71
100 98 100 99 99 99 100 100 99 98 100 99 100 98 94 93 98 94 80 70 64 51 37 45 58 62 72
99 97 99 94 95 100 100 99 96 83 100 99 99 93 91 92 89 85 71 68 59 43 45 58 90 99 82
89 78 79 81 85 86 87 89 92 90 95 96 90 92 92 86 78 75 66 60 47 61 94 94 98 97 96
98 99 95 98 92 94 93 99 99 96 98 88 84 81 81 79 72 69 60 55 56 92 94 97 77 67 62
100 98 95 90 86 84 85 100 94 95 91 90 76 72 70 68 66 59 64 74 71 97 99 85 68 62 52
100 97 94 93 90 93 94 91 95 83 82 89 76 73 45 59 64 58 61 69 95 99 90 71 65 60 54
100 100 100 100 99 94 94 98 95 85 76 75 70 72 58 67 67 73 80 77 86 88 79 68 65 60 57
99 97 95 95 100 100 100 100 98 90 78 67 77 55 56 46 62 72 75 74 74 82 76 65 59 55 51
95 95 92 98 100 100 100 100 96 92 84 79 71 64 47 52 46 62 60 56 68 71 68 65 61 55 48
94 90 89 93 100 100 98 100 97 100 98 88 78 68 58 47 58 56 58 54 57 64 70 63 54 51 46
97 92 91 90 96 98 94 98 91 99 100 95 86 83 80 70 66 59 55 53 52 64 60 50 43 38 38
99 99 98 98 94 96 88 91 81 73 87 83 82 69 91 82 64 58 44 54 58 70 66 54 45 41 47

GFSFLT2_925_rhum_102.txt.gz
RH
100 98 100 100 100 100 92 91 91 96 94 93 90 90 86 86 81 85 86 83 77 71 73 84 99 99 95
100 100 100 100 98 94 94 93 95 89 89 84 83 85 94 92 90 88 86 82 76 68 69 71 72 78 96
100 100 100 100 100 100 100 100 95 92 88 90 88 91 93 99 96 93 88 81 75 68 65 64 69 69 70
99 100 99 100 100 99 100 100 99 100 98 94 90 90 94 98 98 97 90 81 75 69 66 58 51 58 68
100 100 100 100 99 99 100 100 100 98 98 92 88 92 96 98 99 98 92 83 74 69 65 54 42 46 66
99 97 98 99 100 100 100 99 99 100 99 96 94 96 97 98 100 99 92 83 70 64 56 41 36 58 67
98 97 99 99 98 100 100 98 98 91 100 98 98 99 100 99 99 99 94 77 67 60 46 40 83 80 99
100 98 95 96 94 92 92 99 99 91 99 99 100 100 98 96 96 94 85 71 62 50 63 79 95 98 100
100 100 100 98 99 100 100 100 100 100 100 86 94 95 95 92 88 90 78 69 52 71 86 81 84 73 72
100 100 100 100 96 92 90 99 97 98 98 89 87 81 82 83 82 78 86 83 68 94 88 80 63 54 49
100 100 100 100 98 100 100 99 93 85 89 93 82 79 61 70 75 73 74 84 87 94 98 77 62 59 52
100 100 100 100 99 100 96 95 87 81 80 88 79 74 56 70 77 74 72 81 87 92 88 70 66 58 57
100 100 99 100 100 100 100 100 100 91 82 82 80 76 70 55 67 84 87 89 92 90 85 71 58 53 54
99 100 100 100 100 100 100 100 99 98 88 81 79 71 69 48 41 76 68 73 88 96 89 75 60 54 51
100 99 100 100 100 100 100 100 99 100 99 83 75 65 50 45 51 49 64 59 73 74 77 69 63 56 53
100 100 99 100 100 100 100 100 100 100 100 100 83 74 69 61 50 50 65 57 69 78 70 71 61 52 50
100 99 99 99 99 100 99 99 100 100 100 100 98 81 92 89 74 68 51 58 58 81 71 54 44 40 38

GFSFLT2_925_rhum_105.txt.gz
RH
92 88 89 91 97 99 98 94 93 92 88 100 94 89 92 93 88 86 79 78 80 77 76 72 68 70 97
99 99 99 99 99 100 100 100 99 98 100 98 97 96 91 89 91 87 80 82 80 75 70 69 67 67 77
99 100 100 100 100 100 100 100 99 94 96 96 94 88 86 93 95 90 88 81 80 75 69 66 63 64 68
100 99 99 100 100 99 100 100 100 100 100 95 92 89 93 95 98 97 92 86 78 74 69 66 64 54 56
100 100 100 100 99 99 100 100 100 99 100 100 100 100 98 98 97 98 96 89 81 74 67 65 60 48 47
99 97 99 99 100 100 100 99 99 100 100 100 100 100 99 92 95 96 95 94 84 74 66 59 50 48 75
99 97 97 97 98 100 100 96 92 97 100 100 100 100 93 90 96 95 95 95 85 70 62 52 51 78 81
99 100 97 92 95 95 97 97 99 99 100 99 100 100 95 93 97 100 98 96 81 66 53 66 76 89 94
91 98 100 99 96 100 100 99 99 100 100 92 100 100 100 99 99 100 100 94 75 59 83 75 74 89 84
94 100 98 100 100 100 100 97 98 100 99 95 99 97 96 97 98 100 100 94 75 64 91 81 74 69 59
99 100 100 100 100 100 100 98 96 96 94 96 97 95 86 89 90 95 93 88 83 92 97 88 68 59 52
100 100 100 100 100 99 100 100 92 82 91 92 86 84 68 92 88 84 86 86 80 93 94 88 87 62 57
100 100 99 99 100 100 100 100 100 99 92 96 81 81 68 57 85 93 95 97 85 91 86 78 74 63 75
100 99 100 100 100 100 100 100 100 100 100 96 84 78 69 58 43 97 83 86 88 95 84 77 68 61 56
100 100 100 100 100 100 100 98 98 99 98 91 83 77 75 69 65 79 84 71 95 98 98 86 72 59 54
100 100 100 100 100 100 100 99 99 100 100 91 79 67 66 60 52 68 82 73 86 98 99 96 84 60 56
100 100 100 100 100 100 100 100 99 99 98 94 89 75 80 74 78 58 63 64 84 100 90 78 69 55 53

GFSFLT2_925_rhum_108.txt.gz
RH
83 83 86 83 82 77 89 87 89 95 85 89 94 94 89 99 95 88 87 85 80 80 81 88 92 96 98
90 93 91 89 88 90 97 99 100 100 96 94 88 89 100 96 90 90 90 82 81 80 80 74 73 78 84
89 95 98 100 100 100 99 100 100 100 100 96 99 100 97 97 97 94 88 86 84 81 77 72 70 69 66
99 100 100 99 100 100 100 100 100 100 100 100 100 100 100 99 93 85 89 91 85 79 76 72 67 64 61
100 100 100 99 99 100 100 100 100 100 100 100 100 100 100 95 92 90 92 92 85 79 74 71 67 64 59
98 98 98 98 100 100 100 99 99 100 100 100 100 100 99 99 99 97 93 96 89 82 78 71 65 59 60
99 99 98 99 99 100 100 95 90 92 100 100 100 100 100 100 100 96 93 91 95 89 80 71 61 62 75
99 100 100 100 99 97 93 95 97 98 100 96 100 100 100 99 96 92 93 95 90 92 82 68 72 68 71
100 99 97 94 100 100 100 100 100 100 100 96 100 100 100 100 97 93 91 92 92 92 80 73 76 66 59
92 88 99 99 93 100 100 97 94 99 100 97 100 97 100 100 99 99 100 100 99 93 80 98 84 83 89
92 94 92 100 100 100 100 99 98 94 93 98 100 100 97 100 100 100 100 100 100 93 95 99 97 79 81
86 89 97 100 98 99 100 100 100 89 88 98 90 96 93 99 98 100 100 99 98 91 97 98 97 64 70
90 92 96 100 99 100 100 100 100 100 99 100 95 98 93 95 96 99 100 100 97 97 100 94 93 72 68
100 99 99 100 100 100 100 100 100 100 100 100 99 96 96 87 83 98 95 99 100 100 99 90 95 86 88
100 100 99 100 100 100 100 100 97 98 100 99 100 100 95 78 89 93 96 94 100 100 100 99 92 80 77
99 100 100 100 100 100 100 100 99 99 98 99 98 99 99 96 82 86 92 95 100 100 100 96 94 83 75
99 100 100 100 100 100 100 100 100 100 100 98 99 99 97 94 89 81 87 97 100 100 99 90 91 87 76

GFSFLT2_925_rhum_111.txt.gz
RH
82 82 88 84 82 77 78 82 76 74 79 74 70 72 84 79 94 95 99 97 98 90 83 82 97 98 91
87 99 98 92 89 89 88 87 85 78 69 77 80 89 86 86 97 95 95 98 96 87 81 84 87 89 84
98 98 98 96 98 98 97 92 89 85 89 90 88 97 100 98 100 97 100 98 92 87 80 80 78 74 72
98 99 100 99 100 99 99 99 100 100 99 100 100 100 100 100 94 100 99 95 91 83 82 80 75 72 69
96 100 99 100 99 98 100 100 100 100 100 100 100 100 100 97 100 100 98 94 90 88 85 79 74 71 67
91 92 94 100 100 100 100 100 99 99 100 100 100 100 100 100 98 97 95 89 85 88 85 78 74 70 65
90 90 97 99 98 100 100 99 95 92 100 99 100 100 99 100 100 95 88 87 89 89 85 80 76 70 64
77 82 89 94 99 100 100 99 98 98 98 97 100 99 100 100 99 96 92 90 89 90 90 85 79 68 63
75 78 80 82 80 93 99 100 98 99 99 100 100 100 100 100 100 100 97 96 92 89 92 91 80 68 70
79 82 79 80 84 81 98 99 98 100 99 100 100 98 100 100 100 100 100 100 98 92 89 91 81 76 66
71 77 80 81 81 90 95 99 100 98 91 97 99 100 98 100 100 100 100 100 100 100 94 93 92 80 68
81 85 85 83 80 86 99 100 100 100 98 91 95 96 97 99 99 100 100 100 100 100 99 96 100 98 80
79 84 90 90 100 100 98 86 95 99 100 100 98 95 100 93 99 99 99 100 100 100 98 96 98 98 90
82 86 87 97 100 100 100 100 100 100 100 100 100 100 100 100 93 100 98 99 100 100 99 97 95 88 72
78 81 90 95 98 100 100 100 99 98 100 100 100 100 100 99 99 100 100 99 100 100 100 100 99 90 75
86 89 95 99 98 99 100 100 99 98 100 99 99 100 100 99 99 100 100 100 100 100 100 99 100 88 81
89 89 94 99 98 98 99 100 99 99 100 100 100 97 97 96 99 100 98 100 100 100 100 97 95 87 72

GFSFLT2_925_rhum_114.txt.gz
RH
87 98 97 96 94 92 88 85 79 87 86 86 70 69 69 72 75 73 76 81 86 97 100 98 91 92 82
94 94 99 99 98 97 93 95 94 89 89 91 85 78 77 79 80 86 86 91 93 100 100 98 89 99 83
94 95 96 94 100 100 100 100 100 98 97 97 91 90 89 91 88 89 89 98 100 100 100 94 87 88 76
92 92 97 96 99 100 99 99 100 100 99 100 99 99 100 100 97 100 100 100 99 100 98 90 86 78 75
89 86 86 92 98 98 100 99 98 96 96 93 97 96 94 91 97 100 100 100 100 98 95 90 80 78 76
83 85 85 97 99 100 99 100 99 87 100 97 100 99 98 99 99 100 100 100 99 98 96 86 80 80 75
80 80 84 79 88 93 96 100 98 97 99 99 99 100 99 100 100 100 99 100 99 99 96 86 82 80 73
78 78 78 80 86 90 94 91 97 98 100 99 98 100 100 100 100 100 100 100 99 97 87 84 84 80 72
72 74 76 79 81 83 92 95 90 98 98 100 98 100 99 100 100 100 100 99 98 91 86 87 86 81 76
72 67 73 74 85 84 84 99 94 93 86 100 99 100 100 99 100 100 100 100 98 94 88 89 90 85 77
71 74 75 80 81 91 85 77 88 85 90 98 100 100 98 97 100 100 100 100 100 100 95 92 92 90 80
78 79 82 82 82 81 89 75 89 90 79 96 100 100 99 100 99 100 100 100 100 100 100 99 95 92 83
82 83 81 79 83 84 75 85 99 98 90 72 87 100 100 97 93 99 98 100 100 100 100 100 98 100 99
80 81 81 81 86 88 95 95 99 97 99 93 78 98 99 99 97 99 99 99 100 100 100 100 100 99 96
82 86 88 87 87 90 88 96 98 95 97 99 92 99 100 100 99 99 100 100 100 100 100 100 100 99 96
90 92 96 93 92 92 100 94 96 93 98 100 100 100 100 100 100 100 100 100 100 100 100 99 100 100 96
91 100 90 97 89 89 92 94 95 98 98 100 100 99 98 97 99 99 98 100 100 100 100 99 97 100 98

GFSFLT2_925_rhum_117.txt.gz
RH
87 87 89 76 88 97 99 89 85 86 83 82 86 72 78 76 74 71 71 69 80 83 80 96 99 100 96
84 89 90 87 86 89 97 100 100 97 93 92 92 92 72 95 81 77 81 76 80 92 90 94 98 100 99
90 89 90 82 94 94 92 90 97 100 100 100 99 87 87 88 95 85 89 89 92 92 98 100 100 100 99
91 88 84 82 84 99 98 98 96 91 94 98 99 100 100 100 97 92 96 93 93 95 100 100 100 100 98
87 84 84 92 91 93 96 95 94 94 96 94 95 94 91 90 89 88 90 96 100 99 100 100 100 100 92
86 90 88 89 88 93 93 94 96 96 100 99 100 97 90 88 91 94 96 97 100 100 100 100 100 100 90
80 81 86 84 90 92 92 95 92 88 90 94 96 100 98 93 98 98 97 97 100 100 100 100 100 98 87
71 71 73 75 75 81 87 93 95 89 79 97 96 98 96 96 97 100 98 100 100 100 100 100 98 93 88
83 83 77 77 79 84 89 96 85 82 84 90 89 97 99 97 94 99 100 100 100 100 100 100 95 93 94
78 56 63 68 73 84 91 99 96 81 81 97 99 99 97 93 93 95 100 100 100 100 100 100 97 94 87
64 57 67 66 67 68 80 88 92 94 90 89 93 98 99 97 96 95 100 100 100 100 100 100 97 90 85
66 70 71 69 70 76 68 75 84 90 92 100 99 98 99 96 98 91 94 100 100 100 100 100 99 94 90
76 77 73 74 79 82 73 71 75 80 85 90 100 99 100 96 96 98 95 98 100 100 100 100 100 99 100
78 78 81 86 89 89 88 87 94 95 84 83 86 99 98 98 98 97 98 98 99 100 100 100 100 100 99
80 84 94 90 96 95 89 95 94 95 90 82 81 90 100 100 98 98 98 99 99 100 100 100 100 100 100
89 94 91 96 100 95 92 91 90 90 89 91 91 98 99 98 100 98 99 98 100 100 100 100 100 100 100
91 90 89 100 100 94 94 94 90 90 90 88 99 99 97 96 87 95 100 100 100 100 100 99 97 100 99